• In Deutschland
  • Länderverzeichnis
  • Für 7 Tage
  • Wassertemperatur
  • Satellitenkarten
  • Wetterkarte
  • Widgets
  • user-avatar
    Anmelden

    Stündliche Wetter Kozuchy

    Heute, 23 Oktober, Dienstag

    Zeit Temperatur Niederschläge Wind Luftdruck Luftfeuchtigkeit
    00:00 +4°C° 0 mm 3 m/S 749 mmHg 91%
    01:00 +3°C° 0 mm 3 m/S 749 mmHg 93%
    02:00 +3°C° 0 mm 4 m/S 748 mmHg 93%
    03:00 +3°C° 0 mm 4 m/S 748 mmHg 92%
    04:00 +3°C° 0 mm 4 m/S 747 mmHg 92%
    05:00 +2°C° 0 mm 5 m/S 746 mmHg 89%
    06:00 +3°C° 0 mm 6 m/S 745 mmHg 86%
    07:00 +3°C° 0 mm 7 m/S 744 mmHg 84%
    08:00 +2°C° 0.7 mm 8 m/S 743 mmHg 82%
    09:00 +2°C° 0.7 mm 8 m/S 741 mmHg 79%
    10:00 +3°C° 0.7 mm 9 m/S 740 mmHg 77%
    11:00 +3°C° 1.5 mm 10 m/S 738 mmHg 78%
    12:00 +3°C° 1.5 mm 10 m/S 736 mmHg 78%
    13:00 +3°C° 1.5 mm 10 m/S 735 mmHg 79%
    14:00 +3°C° 1 mm 10 m/S 733 mmHg 80%
    15:00 +5°C° 1 mm 10 m/S 732 mmHg 82%
    16:00 +5°C° 1 mm 9 m/S 731 mmHg 84%
    17:00 +5°C° 0.5 mm 9 m/S 730 mmHg 84%
    18:00 +6°C° 0.5 mm 8 m/S 729 mmHg 84%
    19:00 +6°C° 0.5 mm 7 m/S 728 mmHg 84%
    20:00 +7°C° 0.3 mm 6 m/S 728 mmHg 83%
    21:00 +5°C° 0.3 mm 6 m/S 728 mmHg 83%
    22:00 +5°C° 0.3 mm 6 m/S 728 mmHg 83%
    23:00 +5°C° 0.3 mm 6 m/S 727 mmHg 83%

    Morgen, 24 Oktober, Mittwoch

    Zeit Temperatur Niederschläge Wind Luftdruck Luftfeuchtigkeit
    00:00 +5°C° 0.3 mm 5 m/S 727 mmHg 83%
    01:00 +5°C° 0.3 mm 5 m/S 727 mmHg 83%
    02:00 +5°C° 0.1 mm 5 m/S 727 mmHg 83%
    03:00 +3°C° 0.1 mm 5 m/S 727 mmHg 83%
    04:00 +3°C° 0.1 mm 5 m/S 727 mmHg 83%
    05:00 +3°C° 0.1 mm 6 m/S 727 mmHg 80%
    06:00 +3°C° 0.1 mm 7 m/S 728 mmHg 77%
    07:00 +2°C° 0.1 mm 8 m/S 728 mmHg 73%
    08:00 +2°C° 0.2 mm 9 m/S 728 mmHg 71%
    09:00 +2°C° 0.2 mm 10 m/S 729 mmHg 69%
    10:00 +3°C° 0.2 mm 12 m/S 729 mmHg 68%
    11:00 +3°C° 0.4 mm 12 m/S 729 mmHg 69%
    12:00 +3°C° 0.4 mm 12 m/S 729 mmHg 70%
    13:00 +4°C° 0.4 mm 13 m/S 730 mmHg 72%
    14:00 +4°C° 0.5 mm 12 m/S 731 mmHg 72%
    15:00 +4°C° 0.5 mm 12 m/S 732 mmHg 73%
    16:00 +4°C° 0.5 mm 12 m/S 732 mmHg 73%
    17:00 +3°C° 0.2 mm 11 m/S 734 mmHg 73%
    18:00 +3°C° 0.2 mm 10 m/S 735 mmHg 73%
    19:00 +3°C° 0.2 mm 10 m/S 736 mmHg 73%
    20:00 +3°C° 0 mm 9 m/S 737 mmHg 74%
    21:00 +2°C° 0 mm 8 m/S 737 mmHg 74%
    22:00 +2°C° 0 mm 8 m/S 738 mmHg 75%
    23:00 +3°C° 0 mm 7 m/S 738 mmHg 77%

    übermorgen, 25 Oktober, Donnerstag

    Zeit Temperatur Niederschläge Wind Luftdruck Luftfeuchtigkeit
    00:00 +2°C° 0 mm 6 m/S 739 mmHg 78%
    01:00 +2°C° 0 mm 6 m/S 739 mmHg 80%
    02:00 +2°C° 0 mm 5 m/S 739 mmHg 82%
    03:00 +2°C° 0 mm 5 m/S 739 mmHg 83%
    04:00 +1°C° 0 mm 5 m/S 739 mmHg 84%
    05:00 +1°C° 0 mm 5 m/S 738 mmHg 83%
    06:00 +1°C° 0 mm 4 m/S 738 mmHg 82%
    07:00 +1°C° 0 mm 4 m/S 738 mmHg 81%
    08:00 +3°C° 0.2 mm 4 m/S 737 mmHg 79%
    09:00 +2°C° 0.2 mm 5 m/S 736 mmHg 78%
    10:00 +3°C° 0.2 mm 5 m/S 735 mmHg 76%
    11:00 +3°C° 0.8 mm 5 m/S 735 mmHg 80%
    12:00 +3°C° 0.8 mm 6 m/S 734 mmHg 83%
    13:00 +4°C° 0.8 mm 6 m/S 733 mmHg 87%
    14:00 +4°C° 0.3 mm 6 m/S 733 mmHg 84%
    15:00 +5°C° 0.3 mm 6 m/S 732 mmHg 82%
    16:00 +6°C° 0.3 mm 7 m/S 732 mmHg 79%
    17:00 +5°C° 0 mm 6 m/S 733 mmHg 82%
    18:00 +6°C° 0 mm 5 m/S 733 mmHg 85%
    19:00 +5°C° 0 mm 5 m/S 734 mmHg 87%
    20:00 +5°C° 0 mm 4 m/S 734 mmHg 88%
    21:00 +4°C° 0 mm 4 m/S 735 mmHg 89%
    22:00 +4°C° 0 mm 3 m/S 735 mmHg 90%
    23:00 +4°C° 0.1 mm 4 m/S 736 mmHg 90%

    26 Oktober, Freitag

    Zeit Temperatur Niederschläge Wind Luftdruck Luftfeuchtigkeit
    00:00 +4°C° 0.1 mm 4 m/S 736 mmHg 90%
    01:00 +3°C° 0.1 mm 5 m/S 736 mmHg 89%
    02:00 +3°C° 0 mm 5 m/S 736 mmHg 90%
    03:00 +3°C° 0 mm 5 m/S 736 mmHg 90%
    04:00 +3°C° 0 mm 5 m/S 737 mmHg 91%
    05:00 +4°C° 0 mm 4 m/S 737 mmHg 91%
    06:00 +3°C° 0 mm 4 m/S 737 mmHg 92%
    07:00 +3°C° 0 mm 4 m/S 738 mmHg 93%
    08:00 +4°C° 0 mm 4 m/S 738 mmHg 88%
    09:00 +6°C° 0 mm 4 m/S 738 mmHg 83%
    10:00 +7°C° 0 mm 4 m/S 738 mmHg 78%
    11:00 +7°C° 0 mm 4 m/S 738 mmHg 76%
    12:00 +8°C° 0 mm 5 m/S 738 mmHg 74%
    13:00 +8°C° 0 mm 5 m/S 737 mmHg 71%
    14:00 +8°C° 0 mm 5 m/S 737 mmHg 72%
    15:00 +7°C° 0 mm 4 m/S 737 mmHg 73%
    16:00 +7°C° 0 mm 4 m/S 736 mmHg 73%
    17:00 +7°C° 0 mm 5 m/S 736 mmHg 77%
    18:00 +7°C° 0 mm 5 m/S 735 mmHg 81%
    19:00 +7°C° 0 mm 6 m/S 735 mmHg 85%
    20:00 +7°C° 0.2 mm 6 m/S 734 mmHg 85%
    21:00 +6°C° 0.2 mm 7 m/S 734 mmHg 84%
    22:00 +8°C° 0.2 mm 7 m/S 733 mmHg 84%
    23:00 +6°C° 0.1 mm 7 m/S 733 mmHg 82%

    27 Oktober, Samstag

    Zeit Temperatur Niederschläge Wind Luftdruck Luftfeuchtigkeit
    00:00 +6°C° 0.1 mm 8 m/S 733 mmHg 80%
    01:00 +6°C° 0.1 mm 8 m/S 732 mmHg 78%
    02:00 +5°C° 0.1 mm 8 m/S 732 mmHg 77%
    03:00 +5°C° 0.1 mm 8 m/S 732 mmHg 75%
    04:00 +4°C° 0.1 mm 8 m/S 732 mmHg 74%
    05:00 +3°C° 0 mm 9 m/S 733 mmHg 72%
    06:00 +3°C° 0 mm 9 m/S 733 mmHg 71%
    07:00 +3°C° 0 mm 9 m/S 733 mmHg 69%
    08:00 +3°C° 0 mm 10 m/S 733 mmHg 67%
    09:00 +3°C° 0 mm 10 m/S 733 mmHg 65%
    10:00 +4°C° 0 mm 11 m/S 733 mmHg 62%
    11:00 +4°C° 0 mm 11 m/S 734 mmHg 62%
    12:00 +6°C° 0 mm 11 m/S 735 mmHg 61%
    13:00 +6°C° 0 mm 10 m/S 736 mmHg 60%
    14:00 +6°C° 0.1 mm 9 m/S 737 mmHg 63%
    15:00 +5°C° 0.1 mm 7 m/S 738 mmHg 66%
    16:00 +5°C° 0.1 mm 6 m/S 739 mmHg 69%
    17:00 +5°C° 0.2 mm 5 m/S 740 mmHg 72%
    18:00 +5°C° 0.2 mm 4 m/S 740 mmHg 76%
    19:00 +4°C° 0.2 mm 3 m/S 741 mmHg 80%
    20:00 +4°C° 0.1 mm 3 m/S 742 mmHg 82%
    21:00 +4°C° 0.1 mm 2 m/S 742 mmHg 84%
    22:00 +4°C° 0.1 mm 2 m/S 743 mmHg 86%
    23:00 +4°C° 0 mm 2 m/S 743 mmHg 88%

    28 Oktober, Sonntag

    Zeit Temperatur Niederschläge Wind Luftdruck Luftfeuchtigkeit
    00:00 +3°C° 0 mm 2 m/S 743 mmHg 89%
    01:00 +4°C° 0 mm 1 m/S 744 mmHg 91%
    02:00 +4°C° 0 mm 1 m/S 744 mmHg 91%
    03:00 +3°C° 0 mm 1 m/S 744 mmHg 91%
    04:00 +3°C° 0 mm 1 m/S 745 mmHg 92%
    05:00 +3°C° 0 mm 1 m/S 745 mmHg 91%
    06:00 +3°C° 0 mm 1 m/S 746 mmHg 91%
    07:00 +2°C° 0 mm 0 m/S 746 mmHg 91%
    08:00 +4°C° 0 mm 1 m/S 746 mmHg 85%
    09:00 +5°C° 0 mm 1 m/S 747 mmHg 79%
    10:00 +7°C° 0 mm 1 m/S 747 mmHg 74%
    11:00 +6°C° 0 mm 2 m/S 747 mmHg 72%
    12:00 +6°C° 0 mm 2 m/S 747 mmHg 70%
    13:00 +7°C° 0 mm 2 m/S 747 mmHg 68%
    14:00 +5°C° 0.1 mm 3 m/S 747 mmHg 70%
    15:00 +5°C° 0.1 mm 3 m/S 747 mmHg 73%
    16:00 +4°C° 0.1 mm 3 m/S 747 mmHg 76%
    17:00 +4°C° 0.2 mm 4 m/S 747 mmHg 76%
    18:00 +4°C° 0.2 mm 4 m/S 747 mmHg 77%
    19:00 +3°C° 0.2 mm 5 m/S 747 mmHg 77%
    20:00 +2°C° 0.1 mm 5 m/S 747 mmHg 76%
    21:00 +2°C° 0.1 mm 5 m/S 747 mmHg 76%
    22:00 +2°C° 0.1 mm 5 m/S 747 mmHg 75%
    23:00 +2°C° 0.1 mm 6 m/S 747 mmHg 75%

    29 Oktober, Montag

    Zeit Temperatur Niederschläge Wind Luftdruck Luftfeuchtigkeit
    00:00 +2°C° 0.1 mm 7 m/S 746 mmHg 75%
    01:00 +2°C° 0.1 mm 7 m/S 746 mmHg 75%
    02:00 0°C° 1 mm 7 m/S 746 mmHg 78%
    03:00 0°C° 1 mm 7 m/S 745 mmHg 80%
    04:00 0°C° 1 mm 8 m/S 745 mmHg 83%
    05:00 0°C° 1.1 mm 8 m/S 745 mmHg 85%
    06:00 -1°C° 1.1 mm 8 m/S 744 mmHg 87%
    07:00 -1°C° 1.1 mm 8 m/S 744 mmHg 89%
    08:00 -1°C° 1.8 mm 8 m/S 744 mmHg 90%
    09:00 -1°C° 1.8 mm 8 m/S 743 mmHg 91%
    10:00 -1°C° 1.8 mm 8 m/S 743 mmHg 93%
    11:00 -1°C° 1.6 mm 8 m/S 743 mmHg 93%
    12:00 -1°C° 1.6 mm 8 m/S 742 mmHg 94%
    13:00 -1°C° 1.6 mm 8 m/S 742 mmHg 94%
    14:00 -1°C° 1.5 mm 8 m/S 741 mmHg 95%
    15:00 -1°C° 1.5 mm 7 m/S 741 mmHg 95%
    16:00 -1°C° 1.5 mm 7 m/S 741 mmHg 95%
    17:00 -1°C° 1 mm 7 m/S 741 mmHg 96%
    18:00 -1°C° 1 mm 6 m/S 740 mmHg 96%
    19:00 -1°C° 1 mm 6 m/S 740 mmHg 96%
    20:00 -1°C° 0.8 mm 6 m/S 740 mmHg 97%
    21:00 -1°C° 0.8 mm 6 m/S 740 mmHg 97%
    22:00 0°C° 0.8 mm 5 m/S 740 mmHg 97%
    23:00 +1°C° 0.5 mm 5 m/S 740 mmHg 97%
    Mehr zeigen